Regional Weather Roundup
Issued by NWS

Home | Current Version | Previous Version | Text Only | Print | Product List | Glossary On
Versions: 1 2 3 4 5 6 7 8 9 10 11 12 13 14 15 16 17 18 19 20 21 22 23 24 25 26 27 28 29 30 31 32 33 34 35 36 37 38 39 40 41 42 43 44 45 46 47 48 49 50
000
ASUS45 KBOI 231710
RWRID
WEATHER ROUNDUP FOR IDAHO
NATIONAL WEATHER SERVICE BOISE ID
1100 AM MDT SAT AUG 23 2014

NOTE: "FAIR" INDICATES FEW OR NO CLOUDS BELOW 12000 FEET
WITH NO SIGNIFICANT WEATHER AND/OR OBSTRUCTIONS TO VISIBILITY

IDZ012-014-231800-
SOUTHWEST IDAHO


CITY           SKY/WX    TMP DP  RH WIND       PRES   REMARKS
BOISE          SUNNY     64  45  49 NW9       30.06S
CALDWELL       SUNNY     66  41  39 NW9       30.09R
MOUNTAIN HOME  SUNNY     66  43  42 NW18G24   30.05F
$$

IDZ016-017-231800-
SOUTHCENTRAL IDAHO


CITY           SKY/WX    TMP DP  RH WIND       PRES   REMARKS
BURLEY         SUNNY     59  46  62 W14G23    30.07S
JEROME         SUNNY     59  48  67 SW17      30.08S
TWIN FALLS     SUNNY     62  46  55 W17G24    30.09R
$$

IDZ019>023-231800-
SOUTHEAST IDAHO


CITY           SKY/WX    TMP DP  RH WIND       PRES   REMARKS
IDAHO FALLS    CLOUDY    54  49  83 SW14      30.07R
POCATELLO      LGT RAIN  54  50  86 SW13      30.08S
REXBURG        CLOUDY    53  48  83 SW10      30.06R
$$

IDZ006-010-011-018-031-032-231800-
CENTRAL IDAHO MOUNTAINS


CITY           SKY/WX    TMP DP  RH WIND       PRES   REMARKS
MCCALL         MOSUNNY   56  44  64 SW9       30.10R
HAILEY         MOSUNNY   54  46  76 SE10      30.09R
STANLEY          N/A     44  41  89 N5        30.16R
SALMON         CLOUDY    54  48  82 CALM      30.09R
CHALLIS        LGT RAIN  52  46  80 CALM      30.11R
$$

IDZ002-004-006-007-026-231800-
NORTHERN IDAHO


CITY           SKY/WX    TMP DP  RH WIND       PRES   REMARKS
LEWISTON       CLOUDY    64  55  72 CALM      30.12R
LOWELL           N/A     59  56  89 CALM      30.13R
COEUR D`ALENE  SUNNY     66  45  45 N13       30.14S
MULLAN PASS    SUNNY     49  39  68 VRB3      30.21R
$$


USA.gov is the U.S. government's official web portal to all federal, state and local government web resources and services.